#datetime,building,power
2022-09-18T00:00:00,mfh,29.20
2022-09-18T00:01:00,mfh,29.18
2022-09-18T00:02:00,mfh,28.68
2022-09-18T00:03:00,mfh,27.59
2022-09-18T00:04:00,mfh,27.56
2022-09-18T00:05:00,mfh,27.62
2022-09-18T00:06:00,mfh,28.28
2022-09-18T00:07:00,mfh,30.26
2022-09-18T00:08:00,mfh,29.86
2022-09-18T00:09:00,mfh,29.96
2022-09-18T00:10:00,mfh,29.27
2022-09-18T00:11:00,mfh,29.29
2022-09-18T00:12:00,mfh,27.61
2022-09-18T00:13:00,mfh,27.82
2022-09-18T00:14:00,mfh,28.21
2022-09-18T00:15:00,mfh,28.26
2022-09-18T00:16:00,mfh,28.71
2022-09-18T00:17:00,mfh,28.49
2022-09-18T00:18:00,mfh,27.82
2022-09-18T00:19:00,mfh,27.89
2022-09-18T00:20:00,mfh,28.32
2022-09-18T00:21:00,mfh,27.85
2022-09-18T00:22:00,mfh,28.46
2022-09-18T00:23:00,mfh,28.50
2022-09-18T00:24:00,mfh,28.53
2022-09-18T00:25:00,mfh,28.39
2022-09-18T00:26:00,mfh,27.66
2022-09-18T00:27:00,mfh,27.66
2022-09-18T00:28:00,mfh,27.75
2022-09-18T00:29:00,mfh,27.58
2022-09-18T00:30:00,mfh,28.15
2022-09-18T00:31:00,mfh,28.55
2022-09-18T00:32:00,mfh,28.84
2022-09-18T00:33:00,mfh,28.85
2022-09-18T00:34:00,mfh,28.10
2022-09-18T00:35:00,mfh,28.58
2022-09-18T00:36:00,mfh,27.88
2022-09-18T00:37:00,mfh,27.60
2022-09-18T00:38:00,mfh,29.26
2022-09-18T00:39:00,mfh,28.62
2022-09-18T00:40:00,mfh,28.57
2022-09-18T00:41:00,mfh,30.01
2022-09-18T00:42:00,mfh,27.98
2022-09-18T00:43:00,mfh,27.95
2022-09-18T00:44:00,mfh,28.20
2022-09-18T00:45:00,mfh,28.00
2022-09-18T00:46:00,mfh,28.84
2022-09-18T00:47:00,mfh,29.56
2022-09-18T00:48:00,mfh,28.75
2022-09-18T00:49:00,mfh,28.71
2022-09-18T00:50:00,mfh,28.05
2022-09-18T00:51:00,mfh,28.02
2022-09-18T00:52:00,mfh,28.12
2022-09-18T00:53:00,mfh,28.64
2022-09-18T00:54:00,mfh,27.79
2022-09-18T00:55:00,mfh,28.18
2022-09-18T00:56:00,mfh,28.17
2022-09-18T00:57:00,mfh,28.14
2022-09-18T00:58:00,mfh,27.49
2022-09-18T00:59:00,mfh,27.55
2022-09-18T01:00:00,mfh,27.38
2022-09-18T01:01:00,mfh,27.40
2022-09-18T01:02:00,mfh,27.92
2022-09-18T01:03:00,mfh,28.04
2022-09-18T01:04:00,mfh,27.97
2022-09-18T01:05:00,mfh,28.00
2022-09-18T01:06:00,mfh,27.96
2022-09-18T01:07:00,mfh,27.32
2022-09-18T01:08:00,mfh,27.42
2022-09-18T01:09:00,mfh,27.37
2022-09-18T01:10:00,mfh,28.15
2022-09-18T01:11:00,mfh,28.09
2022-09-18T01:12:00,mfh,28.18
2022-09-18T01:13:00,mfh,28.06
2022-09-18T01:14:00,mfh,27.41
2022-09-18T01:15:00,mfh,27.62
2022-09-18T01:16:00,mfh,27.72
2022-09-18T01:17:00,mfh,27.58
2022-09-18T01:18:00,mfh,28.18
2022-09-18T01:19:00,mfh,28.38
2022-09-18T01:20:00,mfh,28.25
2022-09-18T01:21:00,mfh,28.21
2022-09-18T01:22:00,mfh,27.55
2022-09-18T01:23:00,mfh,28.18
2022-09-18T01:24:00,mfh,27.59
2022-09-18T01:25:00,mfh,27.37
2022-09-18T01:26:00,mfh,27.97
2022-09-18T01:27:00,mfh,28.03
2022-09-18T01:28:00,mfh,28.02
2022-09-18T01:29:00,mfh,27.98
2022-09-18T01:30:00,mfh,27.38
2022-09-18T01:31:00,mfh,27.30
2022-09-18T01:32:00,mfh,27.31
2022-09-18T01:33:00,mfh,27.94
2022-09-18T01:34:00,mfh,28.16
2022-09-18T01:35:00,mfh,28.23
2022-09-18T01:36:00,mfh,28.41
2022-09-18T01:37:00,mfh,28.19
2022-09-18T01:38:00,mfh,28.26
2022-09-18T01:39:00,mfh,27.56
2022-09-18T01:40:00,mfh,27.80
2022-09-18T01:41:00,mfh,28.77
2022-09-18T01:42:00,mfh,27.66
2022-09-18T01:43:00,mfh,28.92
2022-09-18T01:44:00,mfh,28.61
2022-09-18T01:45:00,mfh,28.70
2022-09-18T01:46:00,mfh,28.76
2022-09-18T01:47:00,mfh,28.76
2022-09-18T01:48:00,mfh,28.22
2022-09-18T01:49:00,mfh,27.78
2022-09-18T01:50:00,mfh,27.78
2022-09-18T01:51:00,mfh,28.39
2022-09-18T01:52:00,mfh,28.41
2022-09-18T01:53:00,mfh,28.64
2022-09-18T01:54:00,mfh,28.23
2022-09-18T01:55:00,mfh,27.54
2022-09-18T01:56:00,mfh,28.14
2022-09-18T01:57:00,mfh,27.51
2022-09-18T01:58:00,mfh,27.50
2022-09-18T01:59:00,mfh,28.09
2022-09-18T02:00:00,mfh,28.95
2022-09-18T02:01:00,mfh,28.95
2022-09-18T02:02:00,mfh,28.41
2022-09-18T02:03:00,mfh,28.32
2022-09-18T02:04:00,mfh,28.35
2022-09-18T02:05:00,mfh,29.10
2022-09-18T02:06:00,mfh,30.08
2022-09-18T02:07:00,mfh,30.76
2022-09-18T02:08:00,mfh,29.74
2022-09-18T02:09:00,mfh,29.78
2022-09-18T02:10:00,mfh,28.11
2022-09-18T02:11:00,mfh,27.56
2022-09-18T02:12:00,mfh,27.54
2022-09-18T02:13:00,mfh,27.55
2022-09-18T02:14:00,mfh,27.80
2022-09-18T02:15:00,mfh,28.33
2022-09-18T02:16:00,mfh,28.15
2022-09-18T02:17:00,mfh,28.19
2022-09-18T02:18:00,mfh,28.16
2022-09-18T02:19:00,mfh,27.46
2022-09-18T02:20:00,mfh,27.50
2022-09-18T02:21:00,mfh,27.49
2022-09-18T02:22:00,mfh,27.47
2022-09-18T02:23:00,mfh,27.98
2022-09-18T02:24:00,mfh,27.96
2022-09-18T02:25:00,mfh,28.17
2022-09-18T02:26:00,mfh,28.30
2022-09-18T02:27:00,mfh,27.45
2022-09-18T02:28:00,mfh,27.37
2022-09-18T02:29:00,mfh,27.41
2022-09-18T02:30:00,mfh,27.39
2022-09-18T02:31:00,mfh,28.01
2022-09-18T02:32:00,mfh,28.09
2022-09-18T02:33:00,mfh,28.13
2022-09-18T02:34:00,mfh,28.24
2022-09-18T02:35:00,mfh,27.58
2022-09-18T02:36:00,mfh,27.56
2022-09-18T02:37:00,mfh,28.03
2022-09-18T02:38:00,mfh,27.71
2022-09-18T02:39:00,mfh,28.99
2022-09-18T02:40:00,mfh,28.79
2022-09-18T02:41:00,mfh,28.15
2022-09-18T02:42:00,mfh,28.22
2022-09-18T02:43:00,mfh,27.66
2022-09-18T02:44:00,mfh,27.67
2022-09-18T02:45:00,mfh,27.55
2022-09-18T02:46:00,mfh,27.55
2022-09-18T02:47:00,mfh,28.15
2022-09-18T02:48:00,mfh,28.12
2022-09-18T02:49:00,mfh,28.12
2022-09-18T02:50:00,mfh,28.27
2022-09-18T02:51:00,mfh,28.04
2022-09-18T02:52:00,mfh,27.61
2022-09-18T02:53:00,mfh,27.37
2022-09-18T02:54:00,mfh,28.03
2022-09-18T02:55:00,mfh,27.97
2022-09-18T02:56:00,mfh,28.11
2022-09-18T02:57:00,mfh,28.50
2022-09-18T02:58:00,mfh,28.03
2022-09-18T02:59:00,mfh,27.34
2022-09-18T03:00:00,mfh,27.24
2022-09-18T03:01:00,mfh,27.25
2022-09-18T03:02:00,mfh,27.25
2022-09-18T03:03:00,mfh,27.99
2022-09-18T03:04:00,mfh,28.09
2022-09-18T03:05:00,mfh,28.16
2022-09-18T03:06:00,mfh,28.16
2022-09-18T03:07:00,mfh,27.49
2022-09-18T03:08:00,mfh,27.45
2022-09-18T03:09:00,mfh,27.39
2022-09-18T03:10:00,mfh,27.33
2022-09-18T03:11:00,mfh,27.93
2022-09-18T03:12:00,mfh,28.58
2022-09-18T03:13:00,mfh,28.56
2022-09-18T03:14:00,mfh,28.13
2022-09-18T03:15:00,mfh,27.52
2022-09-18T03:16:00,mfh,27.93
2022-09-18T03:17:00,mfh,27.61
2022-09-18T03:18:00,mfh,27.52
2022-09-18T03:19:00,mfh,28.07
2022-09-18T03:20:00,mfh,28.18
2022-09-18T03:21:00,mfh,28.05
2022-09-18T03:22:00,mfh,27.89
2022-09-18T03:23:00,mfh,27.23
2022-09-18T03:24:00,mfh,27.26
2022-09-18T03:25:00,mfh,27.25
2022-09-18T03:26:00,mfh,27.33
2022-09-18T03:27:00,mfh,27.95
2022-09-18T03:28:00,mfh,28.03
2022-09-18T03:29:00,mfh,28.10
2022-09-18T03:30:00,mfh,28.07
2022-09-18T03:31:00,mfh,27.33
2022-09-18T03:32:00,mfh,27.37
2022-09-18T03:33:00,mfh,27.42
2022-09-18T03:34:00,mfh,27.43
2022-09-18T03:35:00,mfh,28.19
2022-09-18T03:36:00,mfh,28.14
2022-09-18T03:37:00,mfh,28.08
2022-09-18T03:38:00,mfh,28.06
2022-09-18T03:39:00,mfh,27.36
2022-09-18T03:40:00,mfh,27.46
2022-09-18T03:41:00,mfh,27.42
2022-09-18T03:42:00,mfh,27.64
2022-09-18T03:43:00,mfh,28.16
2022-09-18T03:44:00,mfh,28.92
2022-09-18T03:45:00,mfh,28.08
2022-09-18T03:46:00,mfh,28.07
2022-09-18T03:47:00,mfh,27.83
2022-09-18T03:48:00,mfh,27.38
2022-09-18T03:49:00,mfh,27.40
2022-09-18T03:50:00,mfh,27.40
2022-09-18T03:51:00,mfh,28.00
2022-09-18T03:52:00,mfh,27.85
2022-09-18T03:53:00,mfh,27.94
2022-09-18T03:54:00,mfh,28.01
2022-09-18T03:55:00,mfh,27.35
2022-09-18T03:56:00,mfh,27.28
2022-09-18T03:57:00,mfh,27.26
2022-09-18T03:58:00,mfh,27.22
2022-09-18T03:59:00,mfh,27.99
2022-09-18T04:00:00,mfh,28.01
2022-09-18T04:01:00,mfh,28.27
2022-09-18T04:02:00,mfh,30.66
2022-09-18T04:03:00,mfh,30.06
2022-09-18T04:04:00,mfh,29.96
2022-09-18T04:05:00,mfh,30.06
2022-09-18T04:06:00,mfh,28.51
2022-09-18T04:07:00,mfh,28.38
2022-09-18T04:08:00,mfh,28.45
2022-09-18T04:09:00,mfh,28.40
2022-09-18T04:10:00,mfh,28.51
2022-09-18T04:11:00,mfh,28.65
2022-09-18T04:12:00,mfh,28.19
2022-09-18T04:13:00,mfh,28.15
2022-09-18T04:14:00,mfh,28.07
2022-09-18T04:15:00,mfh,28.63
2022-09-18T04:16:00,mfh,28.60
2022-09-18T04:17:00,mfh,28.48
2022-09-18T04:18:00,mfh,28.65
2022-09-18T04:19:00,mfh,27.81
2022-09-18T04:20:00,mfh,27.81
2022-09-18T04:21:00,mfh,27.76
2022-09-18T04:22:00,mfh,27.49
2022-09-18T04:23:00,mfh,28.09
2022-09-18T04:24:00,mfh,28.12
2022-09-18T04:25:00,mfh,28.85
2022-09-18T04:26:00,mfh,28.17
2022-09-18T04:27:00,mfh,27.70
2022-09-18T04:28:00,mfh,27.62
2022-09-18T04:29:00,mfh,27.62
2022-09-18T04:30:00,mfh,27.78
2022-09-18T04:31:00,mfh,28.45
2022-09-18T04:32:00,mfh,28.37
2022-09-18T04:33:00,mfh,28.37
2022-09-18T04:34:00,mfh,28.12
2022-09-18T04:35:00,mfh,27.65
2022-09-18T04:36:00,mfh,27.77
2022-09-18T04:37:00,mfh,27.74
2022-09-18T04:38:00,mfh,27.66
2022-09-18T04:39:00,mfh,28.32
2022-09-18T04:40:00,mfh,26.33
2022-09-18T04:41:00,mfh,26.90
2022-09-18T04:42:00,mfh,27.07
2022-09-18T04:43:00,mfh,26.41
2022-09-18T04:44:00,mfh,26.81
2022-09-18T04:45:00,mfh,26.33
2022-09-18T04:46:00,mfh,26.63
2022-09-18T04:47:00,mfh,26.91
2022-09-18T04:48:00,mfh,26.25
2022-09-18T04:49:00,mfh,26.22
2022-09-18T04:50:00,mfh,45.57
2022-09-18T04:51:00,mfh,47.42
2022-09-18T04:52:00,mfh,48.64
2022-09-18T04:53:00,mfh,49.91
2022-09-18T04:54:00,mfh,47.93
2022-09-18T04:55:00,mfh,48.24
2022-09-18T04:56:00,mfh,48.20
2022-09-18T04:57:00,mfh,48.17
2022-09-18T04:58:00,mfh,48.04
2022-09-18T04:59:00,mfh,41.25
2022-09-18T05:00:00,mfh,39.46
2022-09-18T05:01:00,mfh,53.59
2022-09-18T05:02:00,mfh,57.42
2022-09-18T05:03:00,mfh,58.55
2022-09-18T05:04:00,mfh,58.27
2022-09-18T05:05:00,mfh,58.43
2022-09-18T05:06:00,mfh,52.70
2022-09-18T05:07:00,mfh,51.84
2022-09-18T05:08:00,mfh,44.27
2022-09-18T05:09:00,mfh,44.38
2022-09-18T05:10:00,mfh,44.43
2022-09-18T05:11:00,mfh,45.02
2022-09-18T05:12:00,mfh,45.02
2022-09-18T05:13:00,mfh,45.42
2022-09-18T05:14:00,mfh,45.71
2022-09-18T05:15:00,mfh,44.92
2022-09-18T05:16:00,mfh,45.07
2022-09-18T05:17:00,mfh,44.94
2022-09-18T05:18:00,mfh,45.13
2022-09-18T05:19:00,mfh,45.80
2022-09-18T05:20:00,mfh,45.74
2022-09-18T05:21:00,mfh,45.79
2022-09-18T05:22:00,mfh,45.67
2022-09-18T05:23:00,mfh,44.92
2022-09-18T05:24:00,mfh,45.03
2022-09-18T05:25:00,mfh,44.75
2022-09-18T05:26:00,mfh,45.79
2022-09-18T05:27:00,mfh,45.41
2022-09-18T05:28:00,mfh,45.82
2022-09-18T05:29:00,mfh,45.58
2022-09-18T05:30:00,mfh,45.52
2022-09-18T05:31:00,mfh,44.72
2022-09-18T05:32:00,mfh,44.95
2022-09-18T05:33:00,mfh,44.48
2022-09-18T05:34:00,mfh,44.39
2022-09-18T05:35:00,mfh,45.64
2022-09-18T05:36:00,mfh,44.97
2022-09-18T05:37:00,mfh,45.04
2022-09-18T05:38:00,mfh,45.03
2022-09-18T05:39:00,mfh,44.33
2022-09-18T05:40:00,mfh,44.64
2022-09-18T05:41:00,mfh,44.11
2022-09-18T05:42:00,mfh,44.63
2022-09-18T05:43:00,mfh,45.34
2022-09-18T05:44:00,mfh,45.23
2022-09-18T05:45:00,mfh,45.20
2022-09-18T05:46:00,mfh,45.32
2022-09-18T05:47:00,mfh,45.12
2022-09-18T05:48:00,mfh,44.73
2022-09-18T05:49:00,mfh,43.97
2022-09-18T05:50:00,mfh,44.05
2022-09-18T05:51:00,mfh,43.75
2022-09-18T05:52:00,mfh,43.82
2022-09-18T05:53:00,mfh,43.71
2022-09-18T05:54:00,mfh,43.66
2022-09-18T05:55:00,mfh,45.21
2022-09-18T05:56:00,mfh,44.68
2022-09-18T05:57:00,mfh,44.65
2022-09-18T05:58:00,mfh,44.88
2022-09-18T05:59:00,mfh,44.77
2022-09-18T06:00:00,mfh,43.71
2022-09-18T06:01:00,mfh,43.54
2022-09-18T06:02:00,mfh,43.68
2022-09-18T06:03:00,mfh,43.39
2022-09-18T06:04:00,mfh,42.59
2022-09-18T06:05:00,mfh,42.69
2022-09-18T06:06:00,mfh,42.51
2022-09-18T06:07:00,mfh,43.08
2022-09-18T06:08:00,mfh,44.71
2022-09-18T06:09:00,mfh,43.54
2022-09-18T06:10:00,mfh,43.84
2022-09-18T06:11:00,mfh,43.89
2022-09-18T06:12:00,mfh,43.85
2022-09-18T06:13:00,mfh,43.59
2022-09-18T06:14:00,mfh,43.76
2022-09-18T06:15:00,mfh,43.75
2022-09-18T06:16:00,mfh,43.76
2022-09-18T06:17:00,mfh,43.22
2022-09-18T06:18:00,mfh,43.10
2022-09-18T06:19:00,mfh,43.84
2022-09-18T06:20:00,mfh,42.80
2022-09-18T06:21:00,mfh,43.44
2022-09-18T06:22:00,mfh,43.85
2022-09-18T06:23:00,mfh,43.71
2022-09-18T06:24:00,mfh,43.38
2022-09-18T06:25:00,mfh,42.83
2022-09-18T06:26:00,mfh,42.92
2022-09-18T06:27:00,mfh,42.26
2022-09-18T06:28:00,mfh,42.09
2022-09-18T06:29:00,mfh,42.50
2022-09-18T06:30:00,mfh,42.74
2022-09-18T06:31:00,mfh,42.78
2022-09-18T06:32:00,mfh,43.12
2022-09-18T06:33:00,mfh,42.52
2022-09-18T06:34:00,mfh,42.58
2022-09-18T06:35:00,mfh,42.77
2022-09-18T06:36:00,mfh,43.45
2022-09-18T06:37:00,mfh,43.18
2022-09-18T06:38:00,mfh,43.69
2022-09-18T06:39:00,mfh,43.92
2022-09-18T06:40:00,mfh,44.50
2022-09-18T06:41:00,mfh,43.05
2022-09-18T06:42:00,mfh,42.84
2022-09-18T06:43:00,mfh,43.07
2022-09-18T06:44:00,mfh,42.88
2022-09-18T06:45:00,mfh,51.49
2022-09-18T06:46:00,mfh,53.05
2022-09-18T06:47:00,mfh,51.79
2022-09-18T06:48:00,mfh,52.32
2022-09-18T06:49:00,mfh,51.41
2022-09-18T06:50:00,mfh,51.38
2022-09-18T06:51:00,mfh,51.53
2022-09-18T06:52:00,mfh,51.51
2022-09-18T06:53:00,mfh,53.19
2022-09-18T06:54:00,mfh,54.06
2022-09-18T06:55:00,mfh,54.02
2022-09-18T06:56:00,mfh,46.52
2022-09-18T06:57:00,mfh,46.61
2022-09-18T06:58:00,mfh,45.93
2022-09-18T06:59:00,mfh,45.86
2022-09-18T07:00:00,mfh,44.80
2022-09-18T07:01:00,mfh,45.83
2022-09-18T07:02:00,mfh,45.47
2022-09-18T07:03:00,mfh,45.45
2022-09-18T07:04:00,mfh,45.55
2022-09-18T07:05:00,mfh,45.32
2022-09-18T07:06:00,mfh,44.75
2022-09-18T07:07:00,mfh,45.47
2022-09-18T07:08:00,mfh,44.91
2022-09-18T07:09:00,mfh,44.86
2022-09-18T07:10:00,mfh,45.63
2022-09-18T07:11:00,mfh,46.77
2022-09-18T07:12:00,mfh,46.42
2022-09-18T07:13:00,mfh,45.39
2022-09-18T07:14:00,mfh,45.51
2022-09-18T07:15:00,mfh,44.93
2022-09-18T07:16:00,mfh,44.95
2022-09-18T07:17:00,mfh,45.04
2022-09-18T07:18:00,mfh,45.51
2022-09-18T07:19:00,mfh,46.14
2022-09-18T07:20:00,mfh,45.57
2022-09-18T07:21:00,mfh,44.80
2022-09-18T07:22:00,mfh,44.74
2022-09-18T07:23:00,mfh,46.44
2022-09-18T07:24:00,mfh,45.98
2022-09-18T07:25:00,mfh,46.07
2022-09-18T07:26:00,mfh,47.21
2022-09-18T07:27:00,mfh,46.78
2022-09-18T07:28:00,mfh,46.90
2022-09-18T07:29:00,mfh,46.84
2022-09-18T07:30:00,mfh,46.01
2022-09-18T07:31:00,mfh,45.96
2022-09-18T07:32:00,mfh,46.05
2022-09-18T07:33:00,mfh,45.96
2022-09-18T07:34:00,mfh,46.61
2022-09-18T07:35:00,mfh,46.84
2022-09-18T07:36:00,mfh,46.74
2022-09-18T07:37:00,mfh,47.01
2022-09-18T07:38:00,mfh,46.35
2022-09-18T07:39:00,mfh,46.23
2022-09-18T07:40:00,mfh,46.24
2022-09-18T07:41:00,mfh,46.52
2022-09-18T07:42:00,mfh,47.41
2022-09-18T07:43:00,mfh,46.93
2022-09-18T07:44:00,mfh,47.29
2022-09-18T07:45:00,mfh,48.47
2022-09-18T07:46:00,mfh,46.18
2022-09-18T07:47:00,mfh,46.73
2022-09-18T07:48:00,mfh,46.39
2022-09-18T07:49:00,mfh,46.24
2022-09-18T07:50:00,mfh,46.80
2022-09-18T07:51:00,mfh,46.63
2022-09-18T07:52:00,mfh,46.66
2022-09-18T07:53:00,mfh,46.69
2022-09-18T07:54:00,mfh,46.12
2022-09-18T07:55:00,mfh,45.93
2022-09-18T07:56:00,mfh,46.11
2022-09-18T07:57:00,mfh,48.12
2022-09-18T07:58:00,mfh,48.26
2022-09-18T07:59:00,mfh,48.22
2022-09-18T08:00:00,mfh,48.14
2022-09-18T08:01:00,mfh,48.27
2022-09-18T08:02:00,mfh,45.93
2022-09-18T08:03:00,mfh,45.95
2022-09-18T08:04:00,mfh,46.04
2022-09-18T08:05:00,mfh,46.14
2022-09-18T08:06:00,mfh,46.89
2022-09-18T08:07:00,mfh,46.63
2022-09-18T08:08:00,mfh,46.65
2022-09-18T08:09:00,mfh,46.55
2022-09-18T08:10:00,mfh,45.62
2022-09-18T08:11:00,mfh,44.63
2022-09-18T08:12:00,mfh,45.63
2022-09-18T08:13:00,mfh,44.61
2022-09-18T08:14:00,mfh,46.04
2022-09-18T08:15:00,mfh,45.49
2022-09-18T08:16:00,mfh,46.22
2022-09-18T08:17:00,mfh,47.08
2022-09-18T08:18:00,mfh,46.14
2022-09-18T08:19:00,mfh,46.87
2022-09-18T08:20:00,mfh,47.12
2022-09-18T08:21:00,mfh,46.19
2022-09-18T08:22:00,mfh,46.58
2022-09-18T08:23:00,mfh,47.33
2022-09-18T08:24:00,mfh,47.53
2022-09-18T08:25:00,mfh,46.84
2022-09-18T08:26:00,mfh,46.16
2022-09-18T08:27:00,mfh,46.30
2022-09-18T08:28:00,mfh,46.73
2022-09-18T08:29:00,mfh,46.28
2022-09-18T08:30:00,mfh,46.62
2022-09-18T08:31:00,mfh,52.46
2022-09-18T08:32:00,mfh,52.40
2022-09-18T08:33:00,mfh,52.40
2022-09-18T08:34:00,mfh,52.44
2022-09-18T08:35:00,mfh,52.44
2022-09-18T08:36:00,mfh,51.63
2022-09-18T08:37:00,mfh,52.09
2022-09-18T08:38:00,mfh,51.93
2022-09-18T08:39:00,mfh,51.93
2022-09-18T08:40:00,mfh,51.27
2022-09-18T08:41:00,mfh,51.00
2022-09-18T08:42:00,mfh,50.98
2022-09-18T08:43:00,mfh,50.81
2022-09-18T08:44:00,mfh,50.61
2022-09-18T08:45:00,mfh,49.74
2022-09-18T08:46:00,mfh,49.65
2022-09-18T08:47:00,mfh,49.47
2022-09-18T08:48:00,mfh,49.93
2022-09-18T08:49:00,mfh,51.09
2022-09-18T08:50:00,mfh,51.61
2022-09-18T08:51:00,mfh,51.08
2022-09-18T08:52:00,mfh,50.71
2022-09-18T08:53:00,mfh,50.81
2022-09-18T08:54:00,mfh,50.13
2022-09-18T08:55:00,mfh,50.12
2022-09-18T08:56:00,mfh,50.06
2022-09-18T08:57:00,mfh,50.64
2022-09-18T08:58:00,mfh,52.27
2022-09-18T08:59:00,mfh,50.97
2022-09-18T09:00:00,mfh,50.85
2022-09-18T09:01:00,mfh,50.65
2022-09-18T09:02:00,mfh,50.51
2022-09-18T09:03:00,mfh,49.99
2022-09-18T09:04:00,mfh,50.12
2022-09-18T09:05:00,mfh,51.14
2022-09-18T09:06:00,mfh,50.62
2022-09-18T09:07:00,mfh,50.89
2022-09-18T09:08:00,mfh,50.69
2022-09-18T09:09:00,mfh,50.66
2022-09-18T09:10:00,mfh,50.57
2022-09-18T09:11:00,mfh,51.41
2022-09-18T09:12:00,mfh,51.29
2022-09-18T09:13:00,mfh,50.73
2022-09-18T09:14:00,mfh,50.47
2022-09-18T09:15:00,mfh,50.42
2022-09-18T09:16:00,mfh,51.19
2022-09-18T09:17:00,mfh,51.55
2022-09-18T09:18:00,mfh,51.24
2022-09-18T09:19:00,mfh,60.87
2022-09-18T09:20:00,mfh,62.16
2022-09-18T09:21:00,mfh,62.15
2022-09-18T09:22:00,mfh,60.57
2022-09-18T09:23:00,mfh,60.28
2022-09-18T09:24:00,mfh,60.32
2022-09-18T09:25:00,mfh,60.48
2022-09-18T09:26:00,mfh,68.14
2022-09-18T09:27:00,mfh,69.42
2022-09-18T09:28:00,mfh,69.54
2022-09-18T09:29:00,mfh,69.37
2022-09-18T09:30:00,mfh,69.47
2022-09-18T09:31:00,mfh,68.95
2022-09-18T09:32:00,mfh,68.53
2022-09-18T09:33:00,mfh,68.61
2022-09-18T09:34:00,mfh,68.95
2022-09-18T09:35:00,mfh,69.50
2022-09-18T09:36:00,mfh,69.58
2022-09-18T09:37:00,mfh,69.39
2022-09-18T09:38:00,mfh,69.27
2022-09-18T09:39:00,mfh,69.62
2022-09-18T09:40:00,mfh,68.78
2022-09-18T09:41:00,mfh,68.88
2022-09-18T09:42:00,mfh,68.74
2022-09-18T09:43:00,mfh,69.67
2022-09-18T09:44:00,mfh,69.13
2022-09-18T09:45:00,mfh,69.73
2022-09-18T09:46:00,mfh,70.53
2022-09-18T09:47:00,mfh,62.87
2022-09-18T09:48:00,mfh,63.20
2022-09-18T09:49:00,mfh,62.27
2022-09-18T09:50:00,mfh,61.85
2022-09-18T09:51:00,mfh,62.31
2022-09-18T09:52:00,mfh,62.00
2022-09-18T09:53:00,mfh,61.72
2022-09-18T09:54:00,mfh,62.67
2022-09-18T09:55:00,mfh,62.92
2022-09-18T09:56:00,mfh,63.00
2022-09-18T09:57:00,mfh,62.31
2022-09-18T09:58:00,mfh,61.55
2022-09-18T09:59:00,mfh,61.78
2022-09-18T10:00:00,mfh,63.48
2022-09-18T10:01:00,mfh,63.99
2022-09-18T10:02:00,mfh,64.57
2022-09-18T10:03:00,mfh,64.91
2022-09-18T10:04:00,mfh,65.20
2022-09-18T10:05:00,mfh,64.13
2022-09-18T10:06:00,mfh,62.92
2022-09-18T10:07:00,mfh,63.62
2022-09-18T10:08:00,mfh,62.42
2022-09-18T10:09:00,mfh,64.15
2022-09-18T10:10:00,mfh,62.99
2022-09-18T10:11:00,mfh,64.98
2022-09-18T10:12:00,mfh,62.92
2022-09-18T10:13:00,mfh,63.16
2022-09-18T10:14:00,mfh,63.49
2022-09-18T10:15:00,mfh,62.03
2022-09-18T10:16:00,mfh,61.50
2022-09-18T10:17:00,mfh,62.86
2022-09-18T10:18:00,mfh,61.45
2022-09-18T10:19:00,mfh,61.34
2022-09-18T10:20:00,mfh,61.58
2022-09-18T10:21:00,mfh,62.22
2022-09-18T10:22:00,mfh,61.91
2022-09-18T10:23:00,mfh,61.96
2022-09-18T10:24:00,mfh,61.80
2022-09-18T10:25:00,mfh,62.19
2022-09-18T10:26:00,mfh,62.16
2022-09-18T10:27:00,mfh,61.43
2022-09-18T10:28:00,mfh,61.95
2022-09-18T10:29:00,mfh,61.88
2022-09-18T10:30:00,mfh,62.73
2022-09-18T10:31:00,mfh,62.46
2022-09-18T10:32:00,mfh,61.73
2022-09-18T10:33:00,mfh,61.90
2022-09-18T10:34:00,mfh,63.35
2022-09-18T10:35:00,mfh,62.41
2022-09-18T10:36:00,mfh,62.00
2022-09-18T10:37:00,mfh,62.09
2022-09-18T10:38:00,mfh,63.10
2022-09-18T10:39:00,mfh,62.62
2022-09-18T10:40:00,mfh,62.97
2022-09-18T10:41:00,mfh,75.35
2022-09-18T10:42:00,mfh,82.05
2022-09-18T10:43:00,mfh,82.93
2022-09-18T10:44:00,mfh,83.26
2022-09-18T10:45:00,mfh,82.25
2022-09-18T10:46:00,mfh,82.57
2022-09-18T10:47:00,mfh,81.97
2022-09-18T10:48:00,mfh,82.27
2022-09-18T10:49:00,mfh,82.35
2022-09-18T10:50:00,mfh,82.79
2022-09-18T10:51:00,mfh,76.04
2022-09-18T10:52:00,mfh,76.14
2022-09-18T10:53:00,mfh,76.55
2022-09-18T10:54:00,mfh,75.19
2022-09-18T10:55:00,mfh,74.75
2022-09-18T10:56:00,mfh,69.14
2022-09-18T10:57:00,mfh,69.86
2022-09-18T10:58:00,mfh,64.85
2022-09-18T10:59:00,mfh,61.48
2022-09-18T11:00:00,mfh,61.97
2022-09-18T11:01:00,mfh,61.75
2022-09-18T11:02:00,mfh,81.74
2022-09-18T11:03:00,mfh,82.04
2022-09-18T11:04:00,mfh,81.80
2022-09-18T11:05:00,mfh,81.98
2022-09-18T11:06:00,mfh,81.41
2022-09-18T11:07:00,mfh,81.57
2022-09-18T11:08:00,mfh,81.80
2022-09-18T11:09:00,mfh,82.01
2022-09-18T11:10:00,mfh,82.18
2022-09-18T11:11:00,mfh,81.77
2022-09-18T11:12:00,mfh,80.88
2022-09-18T11:13:00,mfh,80.67
2022-09-18T11:14:00,mfh,80.60
2022-09-18T11:15:00,mfh,81.03
2022-09-18T11:16:00,mfh,80.79
2022-09-18T11:17:00,mfh,81.10
2022-09-18T11:18:00,mfh,81.17
2022-09-18T11:19:00,mfh,81.05
2022-09-18T11:20:00,mfh,81.63
2022-09-18T11:21:00,mfh,80.94
2022-09-18T11:22:00,mfh,81.55
2022-09-18T11:23:00,mfh,80.61
2022-09-18T11:24:00,mfh,80.77
2022-09-18T11:25:00,mfh,81.14
2022-09-18T11:26:00,mfh,81.01
2022-09-18T11:27:00,mfh,81.20
2022-09-18T11:28:00,mfh,81.45
2022-09-18T11:29:00,mfh,81.04
2022-09-18T11:30:00,mfh,81.41
2022-09-18T11:31:00,mfh,80.79
2022-09-18T11:32:00,mfh,80.97
2022-09-18T11:33:00,mfh,80.54
2022-09-18T11:34:00,mfh,80.66
2022-09-18T11:35:00,mfh,80.66
2022-09-18T11:36:00,mfh,73.67
2022-09-18T11:37:00,mfh,65.67
2022-09-18T11:38:00,mfh,65.02
2022-09-18T11:39:00,mfh,66.80
2022-09-18T11:40:00,mfh,64.51
2022-09-18T11:41:00,mfh,63.71
2022-09-18T11:42:00,mfh,58.06
2022-09-18T11:43:00,mfh,59.08
2022-09-18T11:44:00,mfh,59.10
2022-09-18T11:45:00,mfh,59.24
2022-09-18T11:46:00,mfh,59.35
2022-09-18T11:47:00,mfh,59.05
2022-09-18T11:48:00,mfh,59.57
2022-09-18T11:49:00,mfh,60.21
2022-09-18T11:50:00,mfh,59.24
2022-09-18T11:51:00,mfh,59.48
2022-09-18T11:52:00,mfh,59.43
2022-09-18T11:53:00,mfh,60.21
2022-09-18T11:54:00,mfh,59.78
2022-09-18T11:55:00,mfh,60.57
2022-09-18T11:56:00,mfh,60.78
2022-09-18T11:57:00,mfh,60.76
2022-09-18T11:58:00,mfh,60.45
2022-09-18T11:59:00,mfh,60.16
2022-09-18T12:00:00,mfh,74.44
2022-09-18T12:01:00,mfh,74.28
2022-09-18T12:02:00,mfh,75.22
2022-09-18T12:03:00,mfh,75.48
2022-09-18T12:04:00,mfh,75.17
2022-09-18T12:05:00,mfh,74.64
2022-09-18T12:06:00,mfh,75.33
2022-09-18T12:07:00,mfh,74.70
2022-09-18T12:08:00,mfh,74.23
2022-09-18T12:09:00,mfh,74.58
2022-09-18T12:10:00,mfh,74.20
2022-09-18T12:11:00,mfh,68.61
2022-09-18T12:12:00,mfh,67.62
2022-09-18T12:13:00,mfh,67.44
2022-09-18T12:14:00,mfh,73.81
2022-09-18T12:15:00,mfh,74.65
2022-09-18T12:16:00,mfh,74.28
2022-09-18T12:17:00,mfh,74.12
2022-09-18T12:18:00,mfh,75.65
2022-09-18T12:19:00,mfh,74.56
2022-09-18T12:20:00,mfh,75.01
2022-09-18T12:21:00,mfh,74.85
2022-09-18T12:22:00,mfh,74.73
2022-09-18T12:23:00,mfh,74.55
2022-09-18T12:24:00,mfh,73.78
2022-09-18T12:25:00,mfh,73.83
2022-09-18T12:26:00,mfh,73.92
2022-09-18T12:27:00,mfh,73.12
2022-09-18T12:28:00,mfh,73.23
2022-09-18T12:29:00,mfh,67.55
2022-09-18T12:30:00,mfh,69.01
2022-09-18T12:31:00,mfh,60.10
2022-09-18T12:32:00,mfh,60.25
2022-09-18T12:33:00,mfh,60.85
2022-09-18T12:34:00,mfh,60.88
2022-09-18T12:35:00,mfh,60.64
2022-09-18T12:36:00,mfh,61.20
2022-09-18T12:37:00,mfh,60.74
2022-09-18T12:38:00,mfh,60.93
2022-09-18T12:39:00,mfh,59.77
2022-09-18T12:40:00,mfh,59.91
2022-09-18T12:41:00,mfh,59.13
2022-09-18T12:42:00,mfh,58.66
2022-09-18T12:43:00,mfh,59.42
2022-09-18T12:44:00,mfh,61.20
2022-09-18T12:45:00,mfh,60.74
2022-09-18T12:46:00,mfh,60.48
2022-09-18T12:47:00,mfh,60.18
2022-09-18T12:48:00,mfh,61.03
2022-09-18T12:49:00,mfh,60.55
2022-09-18T12:50:00,mfh,59.11
2022-09-18T12:51:00,mfh,59.51
2022-09-18T12:52:00,mfh,59.26
2022-09-18T12:53:00,mfh,60.07
2022-09-18T12:54:00,mfh,60.85
2022-09-18T12:55:00,mfh,60.30
2022-09-18T12:56:00,mfh,60.17
2022-09-18T12:57:00,mfh,60.12
2022-09-18T12:58:00,mfh,60.10
2022-09-18T12:59:00,mfh,59.57
2022-09-18T13:00:00,mfh,59.42
2022-09-18T13:01:00,mfh,59.43
2022-09-18T13:02:00,mfh,60.33
2022-09-18T13:03:00,mfh,60.00
2022-09-18T13:04:00,mfh,60.44
2022-09-18T13:05:00,mfh,60.32
2022-09-18T13:06:00,mfh,60.46
2022-09-18T13:07:00,mfh,60.28
2022-09-18T13:08:00,mfh,60.33
2022-09-18T13:09:00,mfh,60.04
2022-09-18T13:10:00,mfh,59.94
2022-09-18T13:11:00,mfh,60.64
2022-09-18T13:12:00,mfh,54.68
2022-09-18T13:13:00,mfh,55.97
2022-09-18T13:14:00,mfh,56.37
2022-09-18T13:15:00,mfh,55.68
2022-09-18T13:16:00,mfh,56.00
2022-09-18T13:17:00,mfh,55.59
2022-09-18T13:18:00,mfh,55.19